Location: Barcelona
(41.3830°N, 2.1830°E)
Time: 06:05:16
(UTC+02:00)

ISS - Pass Details

Date: 17 March 2018
Orbit: 403 x 408 km, 51.6° (Epoch: 21 September)

Event Time Altitude Azimuth Distance (km) Brightness Sun altitude
Exits shadow 04:23:04 16° 51° (NE) 1,178 -0.7 -29.3°
Drops below altitude 10° 04:24:14 10° 68° (ENE) 1,487 0.0 -29.1°
Sets 04:26:40 0° 86° (E) 2,343 1.0 -28.7°
